contact:dominique.lefevre@mio.osupytheas.fr, maurice.libes@osupytheas.fr, didier.mallarino@osupytheas.fr
Project:EMSO http://www.emso-fr.org/EMSO-France
Depth: 2436.0 m
Title:EMSO Ligure Ouest : Data MII capteur AQUADOPP
Date,Latitude,Longitude,X_East,Y_North,Z_Up,Amplitude_X,Amplitude_Y,Amplitude_Z,Batterie,SoundSpeed,Heading,Pitch,Roll,Pressure,TIS,Speed,Direction
, degrees North, degrees East, m.s-1, m.s-1,m.s-1, 1, 1, 1, Volt, m.s-1, degree, degree, degree, dbar, degree_C, m.s-1, degree
2021-07-11T00:04:03,42.805,6.029,0.004,-0.01,0.016,101.0,103.0,100.0,13.4,1505.2,326.3,-0.8,1.8,2470.456,13.29,0.01,158.2
2021-07-11T00:07:03,42.805,6.029,0.012,-0.018,-0.028,100.0,101.0,99.0,13.4,1505.2,329.0,-0.8,1.8,2470.433,13.29,0.021,146.3
2021-07-11T00:10:03,42.805,6.029,0.021,-0.02,-0.041,100.0,102.0,102.0,13.4,1505.2,330.2,-0.8,1.8,2470.421,13.29,0.028,133.6
2021-07-11T00:13:03,42.805,6.029,-0.031,0.002,-0.021,101.0,102.0,100.0,13.4,1505.2,327.9,-0.8,1.8,2470.41,13.29,0.031,273.7
2021-07-11T00:16:03,42.805,6.029,0.014,-0.003,0.001,102.0,101.0,99.0,13.4,1505.2,328.5,-0.8,1.8,2470.448,13.29,0.014,102.1
2021-07-11T00:19:03,42.805,6.029,0.021,-0.019,-0.02,100.0,101.0,100.0,13.3,1505.2,328.9,-0.7,1.8,2470.427,13.29,0.028,132.1
2021-07-11T00:22:03,42.805,6.029,0.002,0.0,0.001,100.0,102.0,101.0,13.4,1505.2,326.4,-0.8,1.8,2470.404,13.29,0.002,90.0
2021-07-11T00:25:03,42.805,6.029,-0.013,-0.007,0.026,99.0,102.0,100.0,13.3,1505.2,325.0,-0.7,1.8,2470.4,13.29,0.014,241.7
2021-07-11T00:28:03,42.805,6.029,0.006,-0.02,-0.035,100.0,102.0,100.0,13.3,1505.2,327.7,-0.8,1.8,2470.439,13.29,0.02,163.3
2021-07-11T00:31:03,42.805,6.029,-0.001,-0.023,-0.025,100.0,104.0,101.0,13.4,1505.2,327.4,-0.7,1.9,2470.437,13.29,0.023,182.5
2021-07-11T00:34:03,42.805,6.029,0.011,-0.006,-0.005,102.0,101.0,101.0,13.4,1505.2,328.5,-0.8,1.8,2470.418,13.29,0.012,118.6
2021-07-11T00:37:03,42.805,6.029,0.013,0.003,0.002,100.0,103.0,100.0,13.4,1505.2,325.2,-0.7,1.8,2470.426,13.29,0.013,77.0
2021-07-11T00:40:03,42.805,6.029,-0.009,-0.015,-0.013,101.0,101.0,100.0,13.4,1505.2,325.6,-0.7,1.8,2470.386,13.29,0.017,211.0
2021-07-11T00:43:03,42.805,6.029,0.001,0.015,0.041,100.0,101.0,99.0,13.3,1505.2,328.9,-0.8,1.8,2470.439,13.29,0.015,3.8
2021-07-11T00:46:03,42.805,6.029,-0.005,0.011,0.014,100.0,101.0,101.0,13.4,1505.2,326.2,-0.8,1.8,2470.414,13.29,0.012,335.6
2021-07-11T00:49:03,42.805,6.029,-0.031,-0.009,-0.035,100.0,101.0,100.0,13.4,1505.2,329.5,-0.8,1.8,2470.421,13.29,0.032,253.8
2021-07-11T00:52:03,42.805,6.029,-0.01,-0.002,0.023,101.0,101.0,101.0,13.4,1505.2,327.7,-0.8,1.8,2470.436,13.29,0.01,258.7
2021-07-11T00:55:03,42.805,6.029,0.03,-0.015,0.0,101.0,100.0,100.0,13.3,1505.2,328.8,-0.7,1.8,2470.384,13.29,0.033,116.6
2021-07-11T00:58:03,42.805,6.029,-0.007,-0.011,-0.021,100.0,100.0,100.0,13.4,1505.2,326.9,-0.8,1.8,2470.4,13.29,0.013,212.5
2021-07-11T01:01:03,42.805,6.029,-0.002,-0.011,0.009,100.0,101.0,100.0,13.3,1505.2,328.4,-0.7,1.8,2470.402,13.29,0.011,190.3
2021-07-11T01:04:03,42.805,6.029,0.004,-0.001,0.014,100.0,102.0,100.0,13.4,1505.2,329.1,-0.7,1.8,2470.397,13.29,0.004,104.0
2021-07-11T01:07:03,42.805,6.029,-0.01,-0.014,-0.003,101.0,101.0,99.0,13.4,1505.2,326.0,-0.7,1.8,2470.378,13.29,0.017,215.5
2021-07-11T01:10:03,42.805,6.029,0.007,-0.003,-0.019,100.0,100.0,101.0,13.4,1505.2,326.4,-0.8,1.8,2470.413,13.29,0.007,113.2
2021-07-11T01:13:03,42.805,6.029,-0.009,-0.016,-0.021,101.0,101.0,100.0,13.3,1505.2,326.6,-0.8,1.8,2470.386,13.29,0.018,209.4
2021-07-11T01:16:03,42.805,6.029,0.011,0.0,0.004,100.0,102.0,99.0,13.4,1505.2,327.7,-0.8,1.8,2470.384,13.29,0.011,90.0
2021-07-11T01:19:03,42.805,6.029,-0.009,-0.016,0.004,100.0,102.0,100.0,13.3,1505.2,328.1,-0.7,1.8,2470.356,13.29,0.018,209.4
2021-07-11T01:22:03,42.805,6.029,-0.025,0.005,0.007,102.0,101.0,100.0,13.4,1505.2,327.9,-0.8,1.9,2470.406,13.29,0.025,281.3
2021-07-11T01:25:03,42.805,6.029,-0.012,0.015,0.064,102.0,101.0,101.0,13.3,1505.2,328.8,-0.7,1.8,2470.36,13.29,0.019,321.3
2021-07-11T01:28:03,42.805,6.029,-0.019,-0.009,0.0,100.0,102.0,99.0,13.3,1505.2,328.3,-0.7,1.8,2470.368,13.29,0.021,244.7
2021-07-11T01:31:03,42.805,6.029,0.021,-0.003,-0.003,100.0,100.0,99.0,13.4,1505.2,325.8,-0.8,1.8,2470.366,13.29,0.021,98.1
2021-07-11T01:34:03,42.805,6.029,0.005,0.006,0.027,101.0,101.0,99.0,13.4,1505.2,326.2,-0.8,1.8,2470.374,13.29,0.007,39.8
2021-07-11T01:37:03,42.805,6.029,-0.02,0.006,-0.017,100.0,102.0,100.0,13.4,1505.2,326.6,-0.7,1.8,2470.409,13.29,0.02,286.7
2021-07-11T01:40:03,42.805,6.029,0.005,0.002,-0.016,101.0,101.0,101.0,13.4,1505.2,326.2,-0.8,1.8,2470.396,13.29,0.005,68.2
2021-07-11T01:43:03,42.805,6.029,-0.004,0.003,0.006,100.0,102.0,100.0,13.4,1505.2,324.8,-0.7,1.8,2470.399,13.29,0.005,306.9
2021-07-11T01:46:03,42.805,6.029,-0.022,-0.014,-0.007,98.0,102.0,100.0,13.4,1505.2,328.8,-0.8,1.8,2470.401,13.29,0.026,237.5
2021-07-11T01:49:03,42.805,6.029,-0.007,-0.006,-0.035,100.0,102.0,99.0,13.4,1505.2,327.8,-0.7,1.8,2470.35,13.29,0.009,229.4
2021-07-11T01:52:03,42.805,6.029,0.0,-0.014,0.0,99.0,103.0,100.0,13.4,1505.2,327.3,-0.8,1.8,2470.409,13.29,0.014,180.0
2021-07-11T01:55:03,42.805,6.029,-0.005,0.002,-0.013,101.0,101.0,100.0,13.4,1505.2,327.3,-0.8,1.8,2470.354,13.29,0.005,291.8
2021-07-11T01:58:03,42.805,6.029,-0.003,-0.001,0.001,100.0,101.0,100.0,13.3,1505.2,326.8,-0.8,1.9,2470.368,13.29,0.003,251.6
2021-07-11T02:04:03,42.805,6.029,0.004,-0.008,-0.003,100.0,102.0,100.0,13.3,1505.2,326.8,-0.7,1.8,2470.425,13.28,0.008,153.4
2021-07-11T02:07:03,42.805,6.029,0.012,-0.02,-0.012,101.0,100.0,99.0,13.3,1505.2,330.6,-0.8,1.8,2470.376,13.28,0.023,149.0
2021-07-11T02:10:03,42.805,6.029,-0.001,-0.007,-0.026,101.0,100.0,99.0,13.4,1505.2,330.1,-0.7,1.8,2470.391,13.28,0.007,188.1
2021-07-11T02:13:03,42.805,6.029,0.009,-0.001,0.005,101.0,101.0,100.0,13.3,1505.2,326.5,-0.7,1.8,2470.386,13.28,0.009,96.3
2021-07-11T02:16:03,42.805,6.029,0.015,-0.009,-0.011,99.0,105.0,101.0,13.3,1505.2,328.5,-0.8,1.8,2470.404,13.28,0.017,121.0
2021-07-11T02:19:03,42.805,6.029,-0.023,-0.005,-0.004,100.0,101.0,100.0,13.4,1505.2,327.2,-0.8,1.8,2470.383,13.28,0.023,257.7
2021-07-11T02:22:03,42.805,6.029,-0.029,0.017,-0.005,100.0,99.0,100.0,13.4,1505.2,326.6,-0.7,1.8,2470.361,13.29,0.033,300.4
2021-07-11T02:25:03,42.805,6.029,-0.007,-0.013,-0.024,102.0,100.0,101.0,13.4,1505.2,324.7,-0.8,1.8,2470.385,13.29,0.014,208.3
2021-07-11T02:28:03,42.805,6.029,0.017,-0.008,0.005,99.0,101.0,101.0,13.3,1505.2,326.4,-0.8,1.8,2470.403,13.29,0.018,115.2
2021-07-11T02:31:03,42.805,6.029,-0.001,-0.01,-0.001,100.0,102.0,100.0,13.4,1505.2,328.7,-0.8,1.8,2470.371,13.29,0.01,185.7
2021-07-11T02:34:03,42.805,6.029,-0.003,-0.011,-0.026,100.0,101.0,101.0,13.4,1505.2,327.8,-0.8,1.9,2470.365,13.29,0.011,195.3
2021-07-11T02:37:03,42.805,6.029,-0.004,-0.032,-0.01,102.0,100.0,100.0,13.3,1505.2,326.6,-0.8,1.8,2470.376,13.29,0.032,187.1
2021-07-11T02:40:03,42.805,6.029,0.004,0.001,-0.012,100.0,102.0,100.0,13.4,1505.2,327.1,-0.7,1.8,2470.365,13.29,0.004,76.0
2021-07-11T02:43:03,42.805,6.029,-0.002,-0.021,-0.018,102.0,100.0,100.0,13.4,1505.2,329.2,-0.7,1.8,2470.337,13.29,0.021,185.4
2021-07-11T02:46:03,42.805,6.029,-0.022,-0.015,-0.006,101.0,99.0,101.0,13.4,1505.2,330.7,-0.7,1.8,2470.393,13.29,0.026,235.7
2021-07-11T02:49:03,42.805,6.029,-0.006,-0.018,-0.004,101.0,101.0,99.0,13.4,1505.2,330.8,-0.7,1.9,2470.394,13.29,0.018,198.4
2021-07-11T02:52:03,42.805,6.029,-0.004,-0.017,-0.015,100.0,102.0,100.0,13.4,1505.2,327.3,-0.7,1.8,2470.388,13.29,0.017,193.2
2021-07-11T02:55:03,42.805,6.029,-0.006,-0.018,-0.014,101.0,103.0,100.0,13.4,1505.2,327.2,-0.7,1.8,2470.336,13.29,0.018,198.4
2021-07-11T02:58:03,42.805,6.029,0.003,-0.006,-0.017,100.0,101.0,99.0,13.3,1505.2,326.3,-0.8,1.8,2470.397,13.29,0.006,153.4
2021-07-11T03:04:03,42.805,6.029,-0.009,0.009,-0.01,100.0,101.0,100.0,13.4,1505.2,328.0,-0.8,1.8,2470.438,13.28,0.012,315.0
2021-07-11T03:07:03,42.805,6.029,-0.009,0.002,0.008,102.0,101.0,99.0,13.4,1505.2,328.3,-0.8,1.8,2470.388,13.28,0.009,282.5
2021-07-11T03:10:03,42.805,6.029,0.017,0.003,0.011,100.0,102.0,101.0,13.4,1505.2,327.3,-0.8,1.8,2470.387,13.28,0.017,80.0
2021-07-11T03:13:03,42.805,6.029,0.007,0.0,0.01,101.0,103.0,101.0,13.4,1505.2,326.4,-0.8,1.8,2470.425,13.28,0.007,90.0
2021-07-11T03:16:03,42.805,6.029,-0.007,0.0,-0.012,99.0,101.0,100.0,13.4,1505.2,325.9,-0.7,1.8,2470.373,13.28,0.007,270.0
2021-07-11T03:19:03,42.805,6.029,-0.022,-0.003,-0.004,101.0,102.0,99.0,13.3,1505.2,328.7,-0.7,1.9,2470.367,13.28,0.022,262.2
2021-07-11T03:22:03,42.805,6.029,-0.015,-0.003,-0.023,101.0,100.0,100.0,13.4,1505.2,328.1,-0.7,1.8,2470.357,13.29,0.015,258.7
2021-07-11T03:25:03,42.805,6.029,0.006,-0.03,-0.02,102.0,101.0,99.0,13.3,1505.2,328.8,-0.8,1.9,2470.355,13.29,0.03,168.7
2021-07-11T03:28:03,42.805,6.029,-0.005,0.002,-0.003,100.0,101.0,100.0,13.4,1505.2,325.4,-0.8,1.8,2470.356,13.29,0.005,291.8
2021-07-11T03:31:03,42.805,6.029,-0.017,-0.008,-0.031,101.0,100.0,102.0,13.3,1505.2,329.9,-0.7,1.8,2470.409,13.29,0.018,244.8
2021-07-11T03:34:03,42.805,6.029,-0.005,-0.005,-0.016,99.0,104.0,100.0,13.3,1505.2,326.7,-0.8,1.8,2470.404,13.29,0.007,225.0
2021-07-11T03:37:03,42.805,6.029,-0.007,0.007,0.001,101.0,102.0,100.0,13.4,1505.2,324.6,-0.7,1.8,2470.383,13.29,0.009,315.0
2021-07-11T03:40:03,42.805,6.029,0.006,0.003,0.008,101.0,101.0,100.0,13.4,1505.2,328.6,-0.7,1.8,2470.414,13.29,0.006,63.4
2021-07-11T03:43:03,42.805,6.029,0.0,-0.006,0.007,99.0,100.0,100.0,13.4,1505.2,328.3,-0.8,1.8,2470.36,13.29,0.006,180.0
2021-07-11T03:46:03,42.805,6.029,-0.01,0.006,-0.027,101.0,100.0,98.0,13.4,1505.2,326.2,-0.7,1.8,2470.382,13.29,0.011,301.0
2021-07-11T03:49:03,42.805,6.029,0.0,-0.003,-0.018,100.0,101.0,100.0,13.4,1505.2,327.8,-0.8,1.8,2470.359,13.29,0.003,180.0
2021-07-11T03:52:03,42.805,6.029,-0.016,0.009,0.004,100.0,100.0,100.0,13.3,1505.2,328.3,-0.7,1.8,2470.35,13.29,0.018,299.4
2021-07-11T03:55:03,42.805,6.029,0.014,0.0,-0.036,101.0,100.0,99.0,13.4,1505.2,326.7,-0.8,1.8,2470.391,13.29,0.014,90.0
2021-07-11T03:58:03,42.805,6.029,-0.011,-0.006,-0.023,101.0,101.0,100.0,13.3,1505.2,328.8,-0.7,1.8,2470.39,13.29,0.012,241.4
2021-07-11T04:04:03,42.805,6.029,0.011,0.002,-0.037,101.0,102.0,100.0,13.4,1505.2,329.3,-0.7,1.8,2470.41,13.28,0.011,79.7
2021-07-11T04:07:03,42.805,6.029,-0.027,-0.009,-0.023,101.0,102.0,98.0,13.4,1505.2,324.5,-0.7,1.8,2470.407,13.28,0.028,251.6
2021-07-11T04:10:03,42.805,6.029,-0.03,-0.02,-0.013,100.0,100.0,100.0,13.3,1505.2,324.6,-0.7,1.8,2470.361,13.28,0.036,236.3
2021-07-11T04:13:03,42.805,6.029,-0.016,-0.019,-0.023,101.0,100.0,99.0,13.4,1505.2,330.2,-0.7,1.8,2470.418,13.28,0.024,220.1
2021-07-11T04:16:03,42.805,6.029,0.01,-0.022,-0.006,100.0,101.0,99.0,13.3,1505.2,329.5,-0.8,1.8,2470.438,13.29,0.024,155.6
2021-07-11T04:19:03,42.805,6.029,-0.022,0.005,0.003,101.0,99.0,100.0,13.4,1505.2,327.3,-0.8,1.8,2470.399,13.29,0.022,282.8
2021-07-11T04:22:03,42.805,6.029,0.001,-0.017,-0.015,103.0,100.0,100.0,13.3,1505.2,326.6,-0.8,1.8,2470.376,13.29,0.017,176.6
2021-07-11T04:25:03,42.805,6.029,0.008,0.001,-0.007,99.0,101.0,99.0,13.4,1505.2,325.9,-0.8,1.8,2470.43,13.29,0.008,82.9
2021-07-11T04:28:03,42.805,6.029,0.006,0.004,0.016,102.0,99.0,100.0,13.4,1505.2,326.1,-0.8,1.8,2470.4,13.29,0.007,56.3
2021-07-11T04:31:03,42.805,6.029,0.003,-0.029,-0.014,102.0,100.0,100.0,13.4,1505.2,328.8,-0.8,1.9,2470.399,13.29,0.029,174.1
2021-07-11T04:34:03,42.805,6.029,-0.006,-0.005,-0.01,100.0,102.0,100.0,13.4,1505.2,328.4,-0.7,1.8,2470.42,13.29,0.007,230.2
2021-07-11T04:37:03,42.805,6.029,-0.015,-0.023,-0.013,100.0,101.0,100.0,13.4,1505.2,329.0,-0.7,1.8,2470.428,13.29,0.027,213.1
2021-07-11T04:40:03,42.805,6.029,-0.017,-0.001,-0.02,101.0,99.0,99.0,13.4,1505.2,325.0,-0.7,1.8,2470.43,13.29,0.017,266.6
2021-07-11T04:43:03,42.805,6.029,-0.002,-0.002,-0.005,97.0,100.0,100.0,13.3,1505.2,328.2,-0.7,1.8,2470.433,13.29,0.002,225.0
2021-07-11T04:46:03,42.805,6.029,-0.014,0.015,-0.003,101.0,102.0,99.0,13.4,1505.2,329.1,-0.7,1.8,2470.391,13.29,0.02,317.0
2021-07-11T04:49:03,42.805,6.029,0.011,-0.039,-0.055,101.0,103.0,98.0,13.4,1505.2,329.0,-0.8,1.8,2470.362,13.29,0.04,164.3
2021-07-11T04:52:03,42.805,6.029,-0.029,-0.019,-0.033,100.0,101.0,100.0,13.4,1505.2,326.3,-0.8,1.8,2470.393,13.29,0.034,236.8
2021-07-11T04:55:03,42.805,6.029,-0.006,-0.005,0.01,100.0,100.0,100.0,13.4,1505.2,330.2,-0.7,1.8,2470.404,13.29,0.007,230.2
2021-07-11T04:58:03,42.805,6.029,-0.016,-0.001,0.006,102.0,100.0,100.0,13.4,1505.2,325.3,-0.7,1.8,2470.421,13.29,0.016,266.4
2021-07-11T05:04:03,42.805,6.029,-0.001,-0.008,-0.004,107.0,101.0,100.0,13.4,1505.2,328.6,-0.8,1.8,2470.446,13.29,0.008,187.1
2021-07-11T05:07:03,42.805,6.029,-0.002,-0.002,-0.033,100.0,100.0,99.0,13.4,1505.2,325.9,-0.7,1.8,2470.432,13.29,0.002,225.0
2021-07-11T05:10:03,42.805,6.029,-0.001,-0.02,-0.006,101.0,110.0,100.0,13.4,1505.2,328.6,-0.8,1.8,2470.398,13.29,0.02,182.9
2021-07-11T05:13:03,42.805,6.029,0.01,-0.024,-0.037,101.0,100.0,99.0,13.3,1505.2,324.9,-0.8,1.8,2470.421,13.29,0.026,157.4
2021-07-11T05:16:03,42.805,6.029,0.006,-0.017,0.0,103.0,101.0,100.0,13.4,1505.2,325.1,-0.8,1.8,2470.426,13.29,0.018,160.6
2021-07-11T05:19:03,42.805,6.029,0.003,-0.006,-0.038,103.0,101.0,100.0,13.4,1505.2,326.1,-0.8,1.8,2470.412,13.29,0.006,153.4
2021-07-11T05:22:03,42.805,6.029,-0.008,-0.001,-0.012,103.0,101.0,98.0,13.4,1505.2,329.8,-0.8,1.8,2470.439,13.29,0.008,262.9
2021-07-11T05:25:03,42.805,6.029,0.016,0.005,-0.005,99.0,102.0,99.0,13.4,1505.2,328.1,-0.7,1.8,2470.448,13.29,0.016,72.6
2021-07-11T05:28:03,42.805,6.029,0.002,-0.008,0.004,100.0,101.0,100.0,13.4,1505.2,329.1,-0.7,1.8,2470.446,13.29,0.008,166.0
2021-07-11T05:31:03,42.805,6.029,-0.027,-0.023,-0.04,100.0,101.0,99.0,13.4,1505.2,325.1,-0.8,1.8,2470.447,13.29,0.035,229.6
2021-07-11T05:34:03,42.805,6.029,-0.012,-0.012,-0.054,100.0,100.0,99.0,13.4,1505.2,326.7,-0.7,1.9,2470.425,13.29,0.016,225.0
2021-07-11T05:37:03,42.805,6.029,-0.011,-0.004,-0.016,100.0,100.0,99.0,13.3,1505.2,327.1,-0.8,1.8,2470.459,13.29,0.011,250.0
2021-07-11T05:40:03,42.805,6.029,-0.024,-0.001,-0.014,100.0,100.0,100.0,13.3,1505.2,325.4,-0.7,1.8,2470.419,13.29,0.024,267.6
2021-07-11T05:43:03,42.805,6.029,-0.015,0.005,-0.016,100.0,99.0,100.0,13.4,1505.2,328.2,-0.7,1.8,2470.492,13.29,0.015,288.4
2021-07-11T05:46:03,42.805,6.029,0.004,-0.01,0.005,100.0,101.0,99.0,13.4,1505.2,328.4,-0.8,1.8,2470.511,13.29,0.01,158.2
2021-07-11T05:49:03,42.805,6.029,-0.009,-0.005,-0.043,101.0,102.0,100.0,13.3,1505.2,329.8,-0.8,1.8,2470.454,13.29,0.01,240.9
2021-07-11T05:52:03,42.805,6.029,-0.005,-0.019,-0.005,101.0,102.0,100.0,13.4,1505.2,330.5,-0.7,1.8,2470.477,13.29,0.019,194.7
2021-07-11T05:55:03,42.805,6.029,-0.012,0.005,0.02,98.0,99.0,100.0,13.4,1505.2,326.1,-0.8,1.8,2470.45,13.29,0.013,292.6
2021-07-11T05:58:03,42.805,6.029,-0.02,0.003,0.004,100.0,100.0,99.0,13.3,1505.2,328.5,-0.8,1.8,2470.439,13.29,0.02,278.5
2021-07-11T06:04:03,42.805,6.029,-0.01,-0.003,0.004,100.0,99.0,101.0,13.4,1505.2,326.0,-0.8,1.8,2470.489,13.29,0.01,253.3
2021-07-11T06:07:03,42.805,6.029,-0.035,-0.008,-0.015,100.0,101.0,100.0,13.3,1505.2,329.9,-0.8,1.8,2470.47,13.29,0.035,257.1
2021-07-11T06:10:03,42.805,6.029,0.012,-0.013,-0.015,100.0,99.0,99.0,13.4,1505.2,326.2,-0.7,1.9,2470.477,13.29,0.017,137.3
2021-07-11T06:13:03,42.805,6.029,0.048,-0.005,0.042,99.0,103.0,100.0,13.4,1505.2,326.5,-0.8,1.8,2470.46,13.29,0.048,95.9
2021-07-11T06:16:03,42.805,6.029,-0.008,-0.019,-0.019,101.0,100.0,99.0,13.3,1505.2,330.1,-0.7,1.8,2470.48,13.29,0.02,202.8
2021-07-11T06:19:03,42.805,6.029,-0.016,-0.015,0.009,104.0,102.0,99.0,13.4,1505.2,325.8,-0.7,1.8,2470.481,13.29,0.021,226.9
2021-07-11T06:22:03,42.805,6.029,-0.017,-0.004,-0.013,101.0,101.0,101.0,13.3,1505.2,326.7,-0.7,1.8,2470.459,13.29,0.017,256.8
2021-07-11T06:25:03,42.805,6.029,-0.017,0.014,-0.006,99.0,103.0,99.0,13.4,1505.2,330.1,-0.7,1.8,2470.494,13.29,0.022,309.5
2021-07-11T06:28:03,42.805,6.029,-0.016,-0.014,-0.027,99.0,100.0,101.0,13.4,1505.2,328.5,-0.8,1.8,2470.449,13.29,0.021,228.8
2021-07-11T06:31:03,42.805,6.029,-0.049,0.015,0.002,100.0,99.0,99.0,13.3,1505.2,326.7,-0.7,1.9,2470.469,13.29,0.051,287.0
2021-07-11T06:34:03,42.805,6.029,-0.022,0.001,-0.042,100.0,100.0,100.0,13.4,1505.2,326.7,-0.7,1.8,2470.532,13.29,0.022,272.6
2021-07-11T06:37:03,42.805,6.029,-0.004,0.003,0.013,101.0,101.0,100.0,13.4,1505.2,328.9,-0.8,1.8,2470.453,13.29,0.005,306.9
2021-07-11T06:40:03,42.805,6.029,-0.012,-0.003,-0.001,99.0,100.0,101.0,13.4,1505.2,329.8,-0.8,1.8,2470.487,13.29,0.012,256.0
2021-07-11T06:43:03,42.805,6.029,-0.001,-0.033,-0.023,99.0,100.0,101.0,13.3,1505.2,328.1,-0.8,1.9,2470.472,13.29,0.033,181.7
2021-07-11T06:46:03,42.805,6.029,-0.008,-0.013,-0.056,100.0,103.0,99.0,13.4,1505.2,324.4,-0.8,1.8,2470.478,13.29,0.015,211.6
2021-07-11T06:49:03,42.805,6.029,-0.004,0.006,-0.016,97.0,102.0,101.0,13.4,1505.2,327.7,-0.7,1.8,2470.514,13.29,0.007,326.3
2021-07-11T06:52:03,42.805,6.029,-0.022,0.015,0.014,100.0,102.0,101.0,13.4,1505.2,326.4,-0.8,1.9,2470.473,13.29,0.026,304.3
2021-07-11T06:55:03,42.805,6.029,0.0,-0.014,-0.029,101.0,100.0,100.0,13.4,1505.2,326.6,-0.7,1.8,2470.476,13.29,0.014,180.0
2021-07-11T06:58:03,42.805,6.029,-0.009,-0.023,-0.029,100.0,102.0,99.0,13.4,1505.2,330.6,-0.8,1.8,2470.501,13.29,0.024,201.4
2021-07-11T07:04:03,42.805,6.029,0.0,-0.015,-0.011,102.0,102.0,98.0,13.3,1505.2,329.6,-0.7,1.8,2470.539,13.29,0.015,180.0
2021-07-11T07:07:03,42.805,6.029,-0.002,-0.008,-0.01,102.0,102.0,98.0,13.4,1505.2,330.2,-0.8,1.8,2470.501,13.29,0.008,194.0
2021-07-11T07:10:03,42.805,6.029,0.006,-0.027,-0.059,101.0,102.0,101.0,13.3,1505.2,329.6,-0.7,1.8,2470.531,13.29,0.027,167.5
2021-07-11T07:13:03,42.805,6.029,-0.017,-0.015,-0.022,99.0,101.0,99.0,13.4,1505.2,328.1,-0.7,1.8,2470.533,13.29,0.022,228.6
2021-07-11T07:16:03,42.805,6.029,-0.031,-0.004,-0.003,100.0,100.0,101.0,13.3,1505.2,327.9,-0.7,1.8,2470.501,13.3,0.031,262.7
2021-07-11T07:19:03,42.805,6.029,-0.017,0.012,0.032,100.0,103.0,100.0,13.4,1505.2,330.1,-0.7,1.8,2470.5,13.3,0.02,305.2
2021-07-11T07:22:03,42.805,6.029,-0.004,-0.003,0.007,99.0,102.0,99.0,13.4,1505.2,327.4,-0.8,1.8,2470.494,13.3,0.005,233.1
2021-07-11T07:25:03,42.805,6.029,0.004,0.006,-0.012,101.0,100.0,99.0,13.4,1505.2,329.5,-0.8,1.8,2470.491,13.3,0.007,33.7
2021-07-11T07:28:03,42.805,6.029,-0.009,-0.012,-0.013,100.0,102.0,100.0,13.4,1505.2,329.0,-0.8,1.8,2470.549,13.3,0.015,216.9
2021-07-11T07:31:03,42.805,6.029,-0.012,-0.002,-0.03,100.0,100.0,101.0,13.4,1505.2,326.4,-0.7,1.8,2470.465,13.3,0.012,260.5
2021-07-11T07:34:03,42.805,6.029,-0.028,-0.004,0.0,100.0,100.0,100.0,13.4,1505.2,326.2,-0.7,1.8,2470.467,13.3,0.028,261.9
2021-07-11T07:37:03,42.805,6.029,-0.027,0.032,0.017,100.0,100.0,100.0,13.4,1505.2,329.1,-0.7,1.8,2470.485,13.3,0.041,319.8
2021-07-11T07:40:03,42.805,6.029,-0.004,-0.031,-0.034,100.0,100.0,100.0,13.4,1505.2,326.8,-0.8,1.8,2470.537,13.3,0.031,187.3
2021-07-11T07:43:03,42.805,6.029,-0.007,-0.009,0.009,102.0,100.0,100.0,13.4,1505.2,328.7,-0.8,1.8,2470.518,13.29,0.011,217.9
2021-07-11T07:46:03,42.805,6.029,-0.017,0.007,0.001,101.0,102.0,98.0,13.3,1505.2,329.3,-0.7,1.8,2470.528,13.29,0.018,292.4
2021-07-11T07:49:03,42.805,6.029,-0.004,-0.019,-0.023,99.0,102.0,98.0,13.4,1505.2,328.6,-0.7,1.8,2470.538,13.29,0.019,191.9
2021-07-11T07:52:03,42.805,6.029,-0.004,-0.005,0.028,100.0,101.0,101.0,13.3,1505.2,328.5,-0.7,1.8,2470.47,13.29,0.006,218.7
2021-07-11T07:55:03,42.805,6.029,-0.029,0.014,0.011,98.0,104.0,100.0,13.3,1505.2,326.6,-0.8,1.8,2470.494,13.29,0.032,295.8
2021-07-11T07:58:03,42.805,6.029,-0.002,0.008,-0.011,102.0,102.0,101.0,13.3,1505.2,325.9,-0.7,1.8,2470.528,13.29,0.008,346.0
2021-07-11T08:04:03,42.805,6.029,-0.008,-0.011,-0.014,101.0,101.0,100.0,13.4,1505.2,326.1,-0.8,1.8,2470.521,13.29,0.013,216.0
2021-07-11T08:07:03,42.805,6.029,0.016,-0.009,-0.005,98.0,101.0,100.0,13.4,1505.2,324.9,-0.8,1.9,2470.539,13.29,0.018,119.4
2021-07-11T08:10:03,42.805,6.029,-0.008,-0.016,0.004,102.0,99.0,100.0,13.3,1505.2,326.7,-0.8,1.8,2470.498,13.29,0.017,206.6
2021-07-11T08:13:03,42.805,6.029,-0.018,-0.013,-0.043,101.0,100.0,100.0,13.3,1505.2,326.2,-0.7,1.8,2470.506,13.29,0.022,234.2
2021-07-11T08:16:03,42.805,6.029,-0.013,0.001,0.005,100.0,100.0,100.0,13.4,1505.2,328.7,-0.7,1.8,2470.517,13.29,0.013,274.4
2021-07-11T08:19:03,42.805,6.029,0.001,0.0,-0.015,100.0,101.0,100.0,13.4,1505.2,329.6,-0.7,1.8,2470.485,13.29,0.001,90.0
2021-07-11T08:22:03,42.805,6.029,-0.009,-0.009,-0.024,99.0,101.0,99.0,13.4,1505.2,325.7,-0.7,1.8,2470.523,13.29,0.012,225.0
2021-07-11T08:25:03,42.805,6.029,-0.014,-0.008,-0.002,100.0,101.0,100.0,13.4,1505.2,328.1,-0.7,1.8,2470.513,13.29,0.016,240.3
2021-07-11T08:28:03,42.805,6.029,0.003,-0.005,-0.011,102.0,102.0,100.0,13.4,1505.2,326.3,-0.7,1.8,2470.484,13.29,0.005,149.0
2021-07-11T08:31:03,42.805,6.029,0.021,-0.029,-0.017,100.0,103.0,100.0,13.3,1505.2,327.7,-0.7,1.8,2470.492,13.29,0.035,144.1
2021-07-11T08:34:03,42.805,6.029,0.001,-0.001,0.006,101.0,101.0,100.0,13.3,1505.2,330.3,-0.8,1.8,2470.501,13.29,0.001,135.0
2021-07-11T08:37:03,42.805,6.029,-0.001,0.019,0.014,104.0,101.0,100.0,13.4,1505.2,327.3,-0.7,1.8,2470.467,13.29,0.019,357.0
2021-07-11T08:40:03,42.805,6.029,-0.025,-0.024,-0.017,102.0,100.0,100.0,13.3,1505.2,327.7,-0.8,1.8,2470.487,13.29,0.034,226.2
2021-07-11T08:43:03,42.805,6.029,-0.019,0.007,-0.022,101.0,100.0,100.0,13.4,1505.2,325.4,-0.7,1.8,2470.459,13.29,0.02,290.2
2021-07-11T08:46:03,42.805,6.029,-0.013,-0.012,-0.03,99.0,103.0,100.0,13.3,1505.2,328.0,-0.8,1.8,2470.499,13.29,0.017,227.3
2021-07-11T08:49:03,42.805,6.029,-0.009,-0.01,-0.003,100.0,102.0,99.0,13.3,1505.2,325.6,-0.7,1.8,2470.465,13.29,0.013,222.0
2021-07-11T08:52:03,42.805,6.029,-0.035,0.004,0.002,101.0,102.0,100.0,13.4,1505.2,329.7,-0.7,1.8,2470.433,13.29,0.035,276.5
2021-07-11T08:55:03,42.805,6.029,-0.021,0.013,0.007,101.0,101.0,100.0,13.3,1505.2,328.6,-0.7,1.8,2470.432,13.29,0.024,301.8
2021-07-11T08:58:03,42.805,6.029,-0.02,-0.01,-0.021,101.0,101.0,101.0,13.3,1505.2,328.6,-0.8,1.8,2470.484,13.29,0.022,243.4
2021-07-11T09:04:03,42.805,6.029,-0.012,0.0,-0.002,105.0,102.0,100.0,13.4,1505.2,330.4,-0.7,1.8,2470.493,13.29,0.012,270.0
2021-07-11T09:07:03,42.805,6.029,-0.034,-0.007,-0.016,101.0,102.0,100.0,13.4,1505.2,325.9,-0.8,1.8,2470.451,13.29,0.034,258.4
2021-07-11T09:10:03,42.805,6.029,-0.015,-0.002,0.0,99.0,102.0,100.0,13.3,1505.2,327.6,-0.8,1.8,2470.467,13.29,0.015,262.4
2021-07-11T09:13:03,42.805,6.029,-0.002,-0.001,-0.031,99.0,102.0,101.0,13.4,1505.2,326.9,-0.8,1.8,2470.428,13.29,0.002,243.4
2021-07-11T09:16:03,42.805,6.029,-0.018,-0.001,-0.015,99.0,99.0,101.0,13.4,1505.2,325.1,-0.8,1.8,2470.434,13.29,0.018,266.8
2021-07-11T09:19:03,42.805,6.029,0.006,-0.022,-0.027,100.0,102.0,100.0,13.4,1505.2,327.2,-0.7,1.8,2470.442,13.29,0.022,164.7
2021-07-11T09:22:03,42.805,6.029,-0.009,0.009,0.009,101.0,100.0,100.0,13.4,1505.2,328.1,-0.7,1.8,2470.431,13.29,0.012,315.0
2021-07-11T09:25:03,42.805,6.029,-0.016,0.013,-0.002,99.0,100.0,100.0,13.4,1505.2,327.8,-0.8,1.8,2470.433,13.29,0.02,309.1
2021-07-11T09:28:03,42.805,6.029,-0.01,0.0,0.016,99.0,101.0,100.0,13.4,1505.2,329.1,-0.8,1.8,2470.442,13.29,0.01,270.0
2021-07-11T09:31:03,42.805,6.029,-0.013,0.0,-0.004,100.0,102.0,100.0,13.3,1505.2,328.6,-0.7,1.8,2470.401,13.29,0.013,270.0
2021-07-11T09:34:03,42.805,6.029,-0.012,0.011,-0.005,100.0,101.0,100.0,13.4,1505.2,327.6,-0.8,1.8,2470.44,13.29,0.016,312.5
2021-07-11T09:37:03,42.805,6.029,-0.011,0.002,-0.004,100.0,103.0,100.0,13.4,1505.2,328.1,-0.7,1.8,2470.432,13.29,0.011,280.3
2021-07-11T09:40:03,42.805,6.029,-0.032,-0.008,-0.041,102.0,100.0,100.0,13.4,1505.2,330.2,-0.7,1.8,2470.421,13.29,0.032,256.0
2021-07-11T09:43:03,42.805,6.029,-0.019,-0.005,-0.016,98.0,102.0,99.0,13.3,1505.2,327.0,-0.7,1.8,2470.447,13.29,0.019,255.3
2021-07-11T09:46:03,42.805,6.029,0.001,-0.003,-0.028,99.0,101.0,100.0,13.4,1505.2,330.3,-0.7,1.8,2470.426,13.29,0.003,161.6
2021-07-11T09:49:03,42.805,6.029,-0.035,-0.003,-0.012,100.0,100.0,99.0,13.4,1505.2,325.4,-0.7,1.9,2470.427,13.29,0.035,265.1
2021-07-11T09:52:03,42.805,6.029,0.017,-0.026,0.012,100.0,103.0,100.0,13.4,1505.2,327.0,-0.8,1.8,2470.43,13.29,0.031,146.8